SV3CQY Weather Reports


time (UTC)temp
F
wind
direction
speed
knots
gust
knots
rain 1hr
in
rain 24hr
in
rain mn
in
humidity
%
barometer
mb
20260504050513 55 307 6.1 10.4 0.00 0.07 0.00 62 1018.8
20260504045512 54 317 5.2 12.2 0.00 0.07 0.00 68 1018.9
20260504045012 53 297 7.0 12.2 0.00 0.07 0.00 70 1018.9
20260504044537 53 322 7.0 11.3 0.00 0.07 0.00 71 1018.9
20260504044013 53 324 6.1 10.4 0.00 0.07 0.00 70 1019.0
20260504043513 53 330 3.5 10.4 0.00 0.07 0.00 71 1019.0
20260504043029 52 331 4.3 12.2 0.00 0.07 0.00 71 1019.0
20260504042513 52 319 4.3 12.2 0.00 0.07 0.00 71 1018.9
20260504042009 52 356 3.5 10.4 0.00 0.07 0.00 71 1018.8
20260504041528 52 326 5.2 11.3 0.00 0.07 0.00 71 1018.8
20260504041012 52 290 6.1 11.3 0.00 0.07 0.00 71 1018.7
20260504040511 51 338 4.3 11.3 0.00 0.07 0.00 71 1018.7
20260504040030 51 255 4.3 8.7 0.00 0.07 0.00 71 1018.7
20260504035515 51 290 5.2 10.4 0.00 0.07 0.00 71 1018.6
20260504035015 51 304 6.1 10.4 0.00 0.07 0.00 71 1018.6
20260504034546 51 304 5.2 13.0 0.00 0.07 0.00 71 1018.6
20260504034012 51 278 4.3 13.0 0.00 0.07 0.00 71 1018.5
20260504033510 51 295 4.3 9.6 0.00 0.07 0.00 72 1018.4
20260504033033 50 290 0.9 7.0 0.00 0.07 0.00 72 1018.4
20260504032513 50 266 0.9 7.0 0.00 0.07 0.00 71 1018.5
20260504032011 50 313 2.6 6.1 0.00 0.07 0.00 72 1018.4
20260504031530 49 290 1.7 5.2 0.00 0.07 0.00 72 1018.4
20260504031009 48 243 0.9 3.5 0.00 0.07 0.00 67 1018.4
20260504030511 48 0 0.9 3.5 0.00 0.07 0.00 63 1018.5
20260504030042 47 271 0.0 2.6 0.00 0.07 0.00 64 1018.5
20260504025512 48 0 0.9 2.6 0.00 0.07 0.00 65 1018.5
20260504025012 48 226 0.9 3.5 0.00 0.07 0.00 68 1018.5
20260504024530 49 252 0.9 9.6 0.00 0.07 0.00 68 1018.6
20260504024012 49 261 0.9 9.6 0.00 0.07 0.00 70 1018.6
20260504023512 49 240 2.6 9.6 0.00 0.07 0.00 72 1018.6
20260504023031 48 300 2.6 9.6 0.00 0.07 0.00 74 1018.7
20260504022512 46 305 0.9 7.8 0.00 0.07 0.00 73 1018.7
20260504022011 45 227 0.9 2.6 0.00 0.07 0.00 70 1018.6
20260504021530 45 222 0.9 2.6 0.00 0.07 0.00 70 1018.7
20260504021012 45 236 0.9 2.6 0.00 0.07 0.00 70 1018.6
20260504020509 45 208 0.9 3.5 0.00 0.07 0.00 69 1018.7
20260504020032 46 0 0.0 3.5 0.00 0.07 0.00 67 1018.7
20260504015509 47 234 1.7 4.3 0.00 0.07 0.00 66 1018.7
20260504015010 48 221 0.0 4.3 0.00 0.07 0.00 66 1018.8
20260504014540 49 303 0.9 6.1 0.00 0.07 0.00 68 1018.7
20260504014013 49 312 0.0 6.1 0.00 0.07 0.00 67 1018.7
20260504013512 48 325 0.9 7.0 0.00 0.07 0.00 67 1018.7
20260504013033 48 252 0.9 7.0 0.00 0.07 0.00 67 1018.6
20260504012514 48 262 0.9 5.2 0.00 0.07 0.00 67 1018.6
20260504012013 47 221 0.9 5.2 0.00 0.07 0.00 68 1018.6
20260504011530 46 293 0.0 5.2 0.00 0.07 0.00 69 1018.6
20260504011015 46 242 0.9 2.6 0.00 0.07 0.00 68 1018.7
20260504010511 45 226 0.9 1.7 0.00 0.07 0.00 69 1018.6
20260504010030 45 217 0.9 1.7 0.00 0.07 0.00 68 1018.5
20260504005512 45 221 0.9 1.7 0.00 0.07 0.00 68 1018.6
20260504005011 45 210 0.9 1.7 0.00 0.07 0.00 67 1018.6
20260504004532 45 195 0.0 2.6 0.00 0.07 0.00 68 1018.6
20260504004012 45 210 0.9 2.6 0.00 0.07 0.00 69 1018.6
20260504003512 46 230 0.9 3.5 0.00 0.07 0.00 68 1018.6
20260504003035 46 221 1.7 3.5 0.00 0.07 0.00 67 1018.6
20260504002513 46 229 0.9 3.5 0.00 0.07 0.00 67 1018.6
20260504002011 46 212 1.7 3.5 0.00 0.07 0.00 67 1018.7
20260504001530 46 263 0.9 2.6 0.00 0.07 0.00 69 1018.5
20260504001009 46 239 1.7 2.6 0.00 0.07 0.00 70 1018.6
20260504000507 46 201 0.9 2.6 0.00 0.07 0.00 71 1018.6
20260504000030 46 193 0.9 2.6 0.00 0.07 0.00 71 1018.6
20260503235512 46 219 1.7 2.6 0.00 0.07 0.00 71 1018.7
20260503235011 45 235 0.9 3.5 0.00 0.07 0.00 72 1018.7
20260503234538 45 233 1.7 3.5 0.00 0.07 0.00 72 1018.8
20260503234011 45 232 1.7 3.5 0.00 0.07 0.00 72 1018.8
20260503233507 45 198 1.7 3.5 0.00 0.07 0.00 73 1018.9
20260503233030 45 213 1.7 3.5 0.00 0.07 0.00 73 1018.8
20260503232511 45 128 1.7 3.5 0.00 0.07 0.00 74 1018.9
20260503232010 45 224 1.7 3.5 0.00 0.07 0.00 75 1018.9
20260503231533 45 214 0.9 2.6 0.00 0.07 0.00 76 1019.0
20260503231014 45 212 0.0 0.9 0.00 0.07 0.00 75 1019.0
20260503230511 46 0 0.0 1.7 0.00 0.07 0.00 75 1018.9
20260503230030 46 156 0.9 1.7 0.00 0.07 0.00 75 1018.9
20260503225510 46 167 0.9 1.7 0.00 0.07 0.00 75 1018.9
20260503225010 46 223 0.0 2.6 0.00 0.07 0.00 74 1019.1
20260503224529 46 225 0.9 2.6 0.00 0.07 0.00 74 1019.1
20260503224009 45 211 0.9 2.6 0.00 0.07 0.00 75 1019.1
20260503223511 45 0 0.9 2.6 0.00 0.07 0.00 74 1019.1
20260503223030 45 207 0.0 1.7 0.00 0.07 0.00 74 1019.0
20260503222508 45 220 0.9 1.7 0.00 0.07 0.00 74 1019.1
20260503222010 45 214 0.9 1.7 0.00 0.07 0.00 73 1019.1
20260503221534 45 230 0.9 2.6 0.00 0.07 0.00 72 1019.1
20260503221012 45 229 0.9 2.6 0.00 0.07 0.00 72 1019.1
20260503220511 45 212 0.0 2.6 0.00 0.07 0.00 71 1019.2
20260503220029 45 217 0.9 2.6 0.00 0.07 0.00 71 1019.2
20260503215512 45 206 0.9 3.5 0.00 0.07 0.00 71 1019.1
20260503215011 46 235 0.9 4.3 0.00 0.07 0.00 71 1019.2
20260503214530 45 229 1.7 4.3 0.00 0.07 0.00 70 1019.2
20260503214011 45 184 1.7 4.3 0.00 0.07 0.00 71 1019.1
20260503213509 45 200 1.7 3.5 0.00 0.07 0.00 71 1019.2
20260503213057 46 217 0.9 2.6 0.00 0.07 0.00 70 1019.2
20260503212512 46 195 0.9 2.6 0.00 0.07 0.00 69 1019.2
20260503212012 46 205 0.0 2.6 0.00 0.07 0.00 68 1019.3
20260503211531 46 256 0.0 2.6 0.00 0.07 0.00 68 1019.2
20260503211011 46 234 0.9 2.6 0.00 0.07 0.00 68 1019.3
20260503210514 47 227 0.9 1.7 0.00 0.07 0.00 67 1019.4
20260503210031 47 0 0.0 1.7 0.00 0.07 0.00 67 1019.3
20260503205514 48 233 0.0 0.9 0.00 0.07 0.07 66 1019.3
20260503205012 48 0 0.0 0.9 0.00 0.07 0.07 67 1019.3
20260503204545 48 210 0.0 4.3 0.00 0.07 0.07 65 1019.3
20260503204012 48 0 0.0 4.3 0.00 0.07 0.07 64 1019.2
20260503203510 48 233 0.9 3.5 0.00 0.07 0.07 63 1019.3
20260503203031 48 216 1.7 3.5 0.00 0.07 0.07 63 1019.2
20260503202511 48 177 1.7 3.5 0.00 0.07 0.07 63 1019.2
20260503202015 49 184 1.7 2.6 0.00 0.07 0.07 63 1019.2
20260503201529 49 236 0.9 2.6 0.00 0.07 0.07 63 1019.3
20260503201010 49 165 1.7 4.3 0.00 0.07 0.07 63 1019.2
20260503200511 49 240 1.7 4.3 0.00 0.07 0.07 63 1019.3
20260503200033 49 217 0.9 3.5 0.00 0.07 0.07 62 1019.1
20260503195511 49 167 0.9 3.5 0.00 0.07 0.07 63 1019.1
20260503195013 49 230 1.7 5.2 0.00 0.07 0.07 63 1019.1
20260503194532 49 153 1.7 5.2 0.00 0.07 0.07 63 1019.2
20260503194010 49 248 1.7 5.2 0.00 0.07 0.07 62 1019.0
20260503193510 49 174 1.7 4.3 0.00 0.07 0.07 62 1019.1
20260503193039 49 199 1.7 4.3 0.00 0.07 0.07 63 1019.2
20260503192511 49 181 0.9 3.5 0.00 0.07 0.07 62 1019.1
20260503192015 49 213 1.7 3.5 0.00 0.07 0.07 63 1019.1
20260503191529 49 203 1.7 3.5 0.00 0.07 0.07 64 1019.1
20260503191013 48 180 1.7 3.5 0.00 0.07 0.07 66 1019.2
20260503190514 48 205 1.7 4.3 0.00 0.07 0.07 65 1019.2
20260503190029 49 171 2.6 5.2 0.00 0.07 0.07 65 1019.1
20260503185513 49 203 1.7 5.2 0.00 0.07 0.07 65 1019.0
20260503185012 49 198 1.7 3.5 0.00 0.07 0.07 65 1019.0
20260503184538 49 207 1.7 4.3 0.00 0.07 0.07 65 1018.9
20260503184012 49 161 1.7 5.2 0.00 0.07 0.07 66 1018.9
20260503183509 49 170 2.6 5.2 0.00 0.07 0.07 66 1018.9
20260503183029 49 212 1.7 5.2 0.00 0.07 0.07 65 1018.7
20260503182537 49 154 1.7 4.3 0.00 0.07 0.07 66 1018.7
20260503182014 49 164 1.7 4.3 0.00 0.07 0.07 66 1018.8
20260503181528 49 188 1.7 4.3 0.00 0.07 0.07 67 1018.8
20260503181013 49 199 1.7 5.2 0.00 0.07 0.07 68 1018.7
20260503180512 49 204 1.7 5.2 0.00 0.07 0.07 68 1018.6
20260503180040 49 188 2.6 4.3 0.00 0.07 0.07 68 1018.5
20260503175511 49 231 2.6 4.3 0.00 0.07 0.07 68 1018.4
20260503175013 49 198 2.6 4.3 0.00 0.07 0.07 67 1018.5
20260503174529 49 214 1.7 5.2 0.00 0.07 0.07 67 1018.6
20260503174012 50 171 1.7 5.2 0.00 0.07 0.07 67 1018.6
20260503173510 50 200 2.6 4.3 0.00 0.07 0.07 67 1018.5
20260503173046 50 203 2.6 4.3 0.00 0.07 0.07 67 1018.5
20260503172514 50 162 1.7 3.5 0.00 0.07 0.07 66 1018.5
20260503172011 51 208 0.9 2.6 0.00 0.07 0.07 66 1018.4
20260503171528 51 203 0.9 2.6 0.00 0.07 0.07 65 1018.4
20260503171012 51 216 1.7 2.6 0.00 0.07 0.07 65 1018.3
20260503170511 52 193 1.7 2.6 0.00 0.07 0.07 63 1018.2
20260503150508 58 108 3.5 9.6 0.00 0.07 0.07 51 1017.3
20260503131009 55 259 1.7 8.7 0.00 0.07 0.07 72 1017.6
20260503130509 54 222 3.5 8.7 0.02 0.07 0.07 70 1017.8
20260503110509 54 146 7.8 14.8 0.00 0.00 0.00 69 1017.3
20260503090507 59 77 5.2 13.0 0.00 0.00 0.00 60 1016.0
20260503081527 59 113 2.6 5.2 0.00 0.00 0.00 54 1015.9
20260503081012 59 36 2.6 5.2 0.00 0.00 0.00 52 1015.9
20260503080512 59 106 2.6 5.2 0.00 0.00 0.00 52 1015.8
20260503072512 60 41 1.7 4.3 0.00 0.00 0.00 54 1015.7
20260503072011 60 73 0.9 4.3 0.00 0.00 0.00 57 1015.7
20260503071527 60 56 1.7 5.2 0.00 0.00 0.00 55 1015.7
20260503071010 60 46 1.7 5.2 0.00 0.00 0.00 56 1015.7
20260503070512 60 41 1.7 5.2 0.00 0.00 0.00 55 1015.6
20260503055011 58 38 1.7 3.5 0.00 0.00 0.00 60 1015.9
20260503054536 58 49 0.9 3.5 0.00 0.00 0.00 59 1015.9
20260503054011 57 0 0.9 3.5 0.00 0.00 0.00 62 1015.8
20260503053512 56 256 0.9 2.6 0.00 0.00 0.00 62 1015.9
20260503053033 56 104 0.0 6.1 0.00 0.00 0.00 61 1015.9
20260503052516 56 246 2.6 6.1 0.00 0.00 0.00 62 1015.9
20260503052012 55 153 0.0 2.6 0.00 0.00 0.00 64 1015.9